Simultaneous Nadir Overpasses (SNOs) Predictions

Prediction of SNOs between METOP-A and NOAA-19 Satellite Orbit:

Table of predicted SNOs for the next 14.0 days since TLE Epoch: 11/1/2019
Index Date (METOP-A) Time (METOP-A) Lat,Lon (METOP-A) SZA (METOP-A ) Date (NOAA-19) Time (NOAA-19) Lat,Lon (NOAA-19) SZA (NOAA-19 ) Distance(km) Time Diff (sec)
1 11/06/2019 00:13:20 -80.09, 9.76 83.72 11/06/2019 00:12:16 -80.06, 9.87 83.75 3.46 64
2 11/06/2019 01:04:01 80.08, 176.97 96.28 11/06/2019 01:03:12 80.08, 176.89 96.27 1.55 49
3 11/06/2019 01:54:42 -80.08, -15.69 83.71 11/06/2019 01:54:17 -80.07, -15.71 83.73 0.87 25
4 11/06/2019 02:45:23 80.06, 151.52 96.29 11/06/2019 02:45:12 80.06, 151.63 96.29 2.15 11
5 11/06/2019 03:36:04 -80.06, -41.15 83.71 11/06/2019 03:36:18 -80.08, -41.30 83.70 3.15 14
6 11/06/2019 04:26:45 80.05, 126.06 96.29 11/06/2019 04:27:13 80.07, 126.04 96.31 2.01 28
7 11/06/2019 05:17:26 -80.05, -66.60 83.70 11/06/2019 05:18:18 -80.06, -66.57 83.69 0.85 52




NCC Satellite Simultaneous Nadir Overpasses (SNOs) Prediction Service
